Meteo pe oră la Almerek

Astăzi, 25 Ianuarie, Luni

Timp Temperatura Precipitaţii Vânt Presiune Umiditate
00:00 -4°C° 0 mm 1 m/s 716 mmHg 89%
01:00 -6°C° 0 mm 1 m/s 715 mmHg 89%
02:00 -6°C° 0 mm 1 m/s 715 mmHg 90%
03:00 -7°C° 0 mm 1 m/s 714 mmHg 88%
04:00 -7°C° 0 mm 1 m/s 714 mmHg 87%
05:00 -7°C° 0 mm 1 m/s 713 mmHg 89%
06:00 -7°C° 0 mm 1 m/s 713 mmHg 89%
07:00 -7°C° 0 mm 1 m/s 713 mmHg 88%
08:00 -7°C° 0 mm 1 m/s 713 mmHg 88%
09:00 -6°C° 0 mm 1 m/s 712 mmHg 88%
10:00 -6°C° 0 mm 2 m/s 712 mmHg 88%
11:00 -5°C° 0 mm 2 m/s 711 mmHg 88%
12:00 -4°C° 0 mm 2 m/s 711 mmHg 88%
13:00 -4°C° 0 mm 2 m/s 711 mmHg 87%
14:00 -4°C° 0 mm 2 m/s 710 mmHg 87%
15:00 -4°C° 0 mm 2 m/s 711 mmHg 87%
16:00 -3°C° 0 mm 1 m/s 711 mmHg 87%
17:00 -4°C° 0 mm 1 m/s 711 mmHg 87%
18:00 -4°C° 0 mm 1 m/s 711 mmHg 85%
19:00 -4°C° 0 mm 1 m/s 711 mmHg 83%
20:00 -6°C° 0 mm 1 m/s 712 mmHg 82%
21:00 -6°C° 0 mm 1 m/s 712 mmHg 81%
22:00 -6°C° 0 mm 1 m/s 712 mmHg 81%
23:00 -6°C° 0 mm 1 m/s 712 mmHg 81%

Mâine, 26 Ianuarie, Marţi

Timp Temperatura Precipitaţii Vânt Presiune Umiditate
00:00 -7°C° 0 mm 1 m/s 712 mmHg 80%
01:00 -7°C° 0 mm 1 m/s 712 mmHg 79%
02:00 -8°C° 0 mm 1 m/s 712 mmHg 79%
03:00 -8°C° 0 mm 1 m/s 712 mmHg 78%
04:00 -8°C° 0 mm 1 m/s 712 mmHg 77%
05:00 -8°C° 0 mm 1 m/s 712 mmHg 76%
06:00 -8°C° 0 mm 1 m/s 713 mmHg 75%
07:00 -8°C° 0 mm 1 m/s 713 mmHg 75%
08:00 -8°C° 0 mm 1 m/s 713 mmHg 75%
09:00 -6°C° 0 mm 1 m/s 713 mmHg 75%
10:00 -4°C° 0 mm 1 m/s 713 mmHg 76%
11:00 -3°C° 0 mm 1 m/s 713 mmHg 76%
12:00 -2°C° 0 mm 1 m/s 713 mmHg 78%
13:00 -2°C° 0 mm 1 m/s 713 mmHg 80%
14:00 -1°C° 0 mm 1 m/s 712 mmHg 82%
15:00 -2°C° 0 mm 1 m/s 712 mmHg 82%
16:00 -3°C° 0 mm 1 m/s 712 mmHg 82%
17:00 -6°C° 0 mm 1 m/s 713 mmHg 82%
18:00 -6°C° 0 mm 1 m/s 713 mmHg 78%
19:00 -6°C° 0 mm 1 m/s 713 mmHg 75%
20:00 -6°C° 0 mm 1 m/s 713 mmHg 71%
21:00 -6°C° 0 mm 1 m/s 713 mmHg 71%
22:00 -7°C° 0 mm 2 m/s 713 mmHg 70%
23:00 -7°C° 0 mm 2 m/s 713 mmHg 69%

Poimâine, 27 Ianuarie, Miercuri

Timp Temperatura Precipitaţii Vânt Presiune Umiditate
00:00 -7°C° 0 mm 2 m/s 713 mmHg 69%
01:00 -7°C° 0 mm 2 m/s 712 mmHg 69%
02:00 -8°C° 0 mm 2 m/s 712 mmHg 69%
03:00 -8°C° 0 mm 2 m/s 712 mmHg 69%
04:00 -8°C° 0 mm 2 m/s 712 mmHg 69%
05:00 -8°C° 0 mm 2 m/s 712 mmHg 69%
06:00 -7°C° 0 mm 1 m/s 712 mmHg 69%
07:00 -7°C° 0 mm 1 m/s 712 mmHg 69%
08:00 -7°C° 0 mm 1 m/s 712 mmHg 69%
09:00 -6°C° 0 mm 1 m/s 712 mmHg 72%
10:00 -4°C° 0 mm 1 m/s 712 mmHg 74%
11:00 -2°C° 0 mm 1 m/s 711 mmHg 76%
12:00 -2°C° 0 mm 1 m/s 711 mmHg 77%
13:00 -1°C° 0 mm 1 m/s 711 mmHg 78%
14:00 -1°C° 0 mm 1 m/s 711 mmHg 80%
15:00 -2°C° 0 mm 1 m/s 711 mmHg 80%
16:00 -3°C° 0 mm 1 m/s 711 mmHg 80%
17:00 -4°C° 0 mm 1 m/s 711 mmHg 80%
18:00 -6°C° 0 mm 1 m/s 711 mmHg 78%
19:00 -6°C° 0 mm 1 m/s 711 mmHg 75%
20:00 -6°C° 0 mm 1 m/s 712 mmHg 72%
21:00 -7°C° 0 mm 1 m/s 712 mmHg 71%
22:00 -7°C° 0 mm 1 m/s 712 mmHg 71%
23:00 -8°C° 0 mm 2 m/s 712 mmHg 70%

28 Ianuarie, Joi

Timp Temperatura Precipitaţii Vânt Presiune Umiditate
00:00 -8°C° 0 mm 1 m/s 712 mmHg 70%
01:00 -8°C° 0 mm 1 m/s 712 mmHg 69%
02:00 -8°C° 0 mm 1 m/s 712 mmHg 69%
03:00 -8°C° 0 mm 1 m/s 711 mmHg 68%
04:00 -8°C° 0 mm 1 m/s 711 mmHg 68%
05:00 -8°C° 0 mm 1 m/s 711 mmHg 68%
06:00 -8°C° 0 mm 1 m/s 711 mmHg 68%
07:00 -8°C° 0 mm 1 m/s 711 mmHg 69%
08:00 -8°C° 0 mm 1 m/s 712 mmHg 69%
09:00 -7°C° 0 mm 1 m/s 711 mmHg 71%
10:00 -4°C° 0 mm 1 m/s 711 mmHg 73%
11:00 -3°C° 0 mm 1 m/s 711 mmHg 74%
12:00 -2°C° 0 mm 1 m/s 710 mmHg 75%
13:00 -2°C° 0 mm 1 m/s 710 mmHg 76%
14:00 -1°C° 0 mm 1 m/s 710 mmHg 76%
15:00 -2°C° 0 mm 1 m/s 710 mmHg 77%
16:00 -4°C° 0 mm 1 m/s 710 mmHg 78%
17:00 -6°C° 0 mm 1 m/s 710 mmHg 78%
18:00 -6°C° 0 mm 1 m/s 710 mmHg 75%
19:00 -7°C° 0 mm 1 m/s 711 mmHg 72%
20:00 -7°C° 0 mm 1 m/s 711 mmHg 68%
21:00 -7°C° 0 mm 1 m/s 711 mmHg 68%
22:00 -7°C° 0 mm 1 m/s 711 mmHg 67%
23:00 -7°C° 0 mm 1 m/s 711 mmHg 67%

29 Ianuarie, Vineri

Timp Temperatura Precipitaţii Vânt Presiune Umiditate
00:00 -7°C° 0 mm 1 m/s 711 mmHg 67%
01:00 -8°C° 0 mm 1 m/s 711 mmHg 67%
02:00 -8°C° 0 mm 1 m/s 711 mmHg 67%
03:00 -8°C° 0 mm 1 m/s 711 mmHg 67%
04:00 -8°C° 0 mm 1 m/s 711 mmHg 67%
05:00 -8°C° 0 mm 1 m/s 711 mmHg 67%
06:00 -8°C° 0 mm 1 m/s 711 mmHg 67%
07:00 -8°C° 0 mm 1 m/s 711 mmHg 67%
08:00 -8°C° 0 mm 0 m/s 712 mmHg 67%
09:00 -6°C° 0 mm 1 m/s 712 mmHg 68%
10:00 -4°C° 0 mm 1 m/s 712 mmHg 68%
11:00 -2°C° 0 mm 1 m/s 712 mmHg 69%
12:00 -1°C° 0 mm 1 m/s 711 mmHg 71%
13:00 -1°C° 0 mm 1 m/s 711 mmHg 73%
14:00 0°C° 0 mm 1 m/s 711 mmHg 74%
15:00 -2°C° 0 mm 1 m/s 711 mmHg 74%
16:00 -3°C° 0 mm 1 m/s 711 mmHg 73%
17:00 -4°C° 0 mm 1 m/s 711 mmHg 72%
18:00 -4°C° 0 mm 1 m/s 712 mmHg 68%
19:00 -4°C° 0 mm 1 m/s 712 mmHg 64%
20:00 -6°C° 0 mm 2 m/s 712 mmHg 61%
21:00 -6°C° 0 mm 2 m/s 712 mmHg 59%
22:00 -6°C° 0 mm 2 m/s 712 mmHg 58%
23:00 -6°C° 0 mm 2 m/s 712 mmHg 57%

30 Ianuarie, Sâmbătă

Timp Temperatura Precipitaţii Vânt Presiune Umiditate
00:00 -6°C° 0 mm 2 m/s 712 mmHg 57%
01:00 -7°C° 0 mm 3 m/s 712 mmHg 57%
02:00 -7°C° 0 mm 3 m/s 711 mmHg 56%
03:00 -7°C° 0 mm 3 m/s 711 mmHg 56%
04:00 -7°C° 0 mm 3 m/s 711 mmHg 56%
05:00 -7°C° 0 mm 3 m/s 710 mmHg 56%
06:00 -8°C° 0 mm 4 m/s 710 mmHg 56%
07:00 -8°C° 0 mm 4 m/s 710 mmHg 56%
08:00 -7°C° 0 mm 4 m/s 709 mmHg 56%
09:00 -5°C° 0 mm 4 m/s 709 mmHg 59%
10:00 -3°C° 0 mm 4 m/s 708 mmHg 63%
11:00 -1°C° 0 mm 4 m/s 707 mmHg 66%
12:00 0°C° 0 mm 4 m/s 706 mmHg 66%
13:00 +1°C° 0 mm 4 m/s 706 mmHg 67%
14:00 +1°C° 0 mm 4 m/s 705 mmHg 67%
15:00 +1°C° 0 mm 4 m/s 704 mmHg 61%
16:00 0°C° 0 mm 5 m/s 704 mmHg 55%
17:00 -1°C° 0 mm 5 m/s 704 mmHg 50%
18:00 -1°C° 0 mm 5 m/s 704 mmHg 49%
19:00 -1°C° 0 mm 5 m/s 703 mmHg 48%
20:00 -2°C° 0 mm 5 m/s 703 mmHg 48%
21:00 -2°C° 0 mm 5 m/s 703 mmHg 48%
22:00 -2°C° 0 mm 5 m/s 702 mmHg 47%
23:00 -2°C° 0 mm 4 m/s 702 mmHg 47%
Arată mai mult

Formular de consimțământ

Meteoprog și furnizorii noștri de servicii pot stoca și accesa date personale, precum cookies, identificatori de dispozitiv sau alte tehnologii similare pe dispozitivul dumneavoastră și procesa astfel de date pentru a personaliza conținutul și reclamele, dar și pentru a oferi caracteristici de social media și pentru a analiza traficul.

  • Stocarea și/sau accesarea informațiilor pe dispozitivul dumneavoastră

    Cookies, identificatori de dispozitiv sau alte informații pot fi stocate sau accesate pe dispozitiv în scopurile indicate mai sus.

  • Reclame și conținut personalizat, evaluarea reclamelor și a conținutului, informații despre audiențe și dezvoltarea produselor

    Reclamele și conținutul pot fi personalizate pe baza unui profil. Pot fi adăugate date suplimentare pentru a personaliza mai bine reclamele și conținutul. Performanța reclamelor și conținutului poate fi măsurată. Pot fi obținute informații despre utilizatorii care au văzut reclamele și conținutul. Aceste date pot fi utilizate pentru a dezvolta sau îmbunătăți experiența utilizatorilor, sistemele și software-ul.

Dând clic pe ‘Sunt de acord’, permiteți utilizarea cookie-urilor menționate, a identificatorilor de dispozitiv, balizelor web sau altor tehnologii similare. Setările pot fi modificate din browser-ul dispozitivului dumneavoastră.

În anumite scopuri, interesele legitime pot prima asupra consimțământului. Puteți citi mai multe informații în acest sens în Politica privind Confidențialitatea Datelor și Cookie.